Flag for U.S.A. Weather past 2 weeks in Odessa, Texas, U.S.A.

Now
58 °F

Clear.


Feels Like: 58 °F
Forecast: 57 / 79 °F
Wind: 5 mph from Southwest

Location: Odessa-Schlemeyer Field

Current Time: Apr 26, 2015 at 8:24:22 AM

Latest Report: Apr 26, 2015 at 7:53 AM


Visibility: 10 mi

Pressure: 29.63 "Hg

Humidity: 62%

Dew point: 45 °F

Location of OdessaLocation

Historic Weather in Odessa — Graph

°F

Odessa temperature yesterday

Maximum temperature yesterday: 83 °F (at 4:53 PM)
Minimum temperature yesterday: 57 °F (at 2:53 AM)
Average temperature yesterday: 70 °F

Past Weeks' High & Low Weather Summary

 TemperatureHumidityPressure
High87 °F (Apr 22, 3:53 PM)93% (Apr 13, 5:53 AM)30.25 "Hg (Apr 13, 5:53 AM)
Low44 °F (Apr 20, 6:53 AM)8% (Apr 18, 3:53 PM)29.61 "Hg (Apr 26, 4:53 AM)
Average65 °F50%29.83 "Hg
* Reported Apr 11 6:53 AM — Apr 26 6:53 AM, Odessa, Weather by CustomWeather, © 2015

Note: Actual official high and low records may vary slightly from our data, if they occured in-between our weather recording intervals... More about our weather records

Advertising

Odessa weather history for previous 24 hours

 ConditionsComfort  
Time TempWeatherWind HumidityBarometerVisibility
6:53 AM
Sun, Apr 26
57 °FClear.6 mph53%29.62 "Hg10 mi
5:53 AM59 °FClear.6 mph49%29.62 "Hg10 mi
4:53 AM62 °FClear.9 mph46%29.61 "Hg10 mi
3:53 AM59 °FClear.9 mph48%29.63 "Hg10 mi
2:53 AM57 °FClear.7 mph46%29.64 "Hg10 mi
1:53 AM61 °FClear.3 mph35%29.64 "Hg10 mi
12:53 AM62 °FClear.3 mph32%29.64 "Hg10 mi
11:53 PM
Sat, Apr 25
63 °FClear.No wind28%29.65 "Hg10 mi
10:53 PM67 °FClear.6 mph23%29.66 "Hg10 mi
9:53 PM69 °FClear.3 mph21%29.65 "Hg10 mi
8:53 PM72 °FSunny.8 mph18%29.64 "Hg10 mi
7:53 PM80 °FSunny.13 mph10%29.64 "Hg10 mi
6:53 PM82 °FSunny.15 mph10%29.63 "Hg10 mi
5:53 PM83 °FSunny.16 mph10%29.64 "Hg9 mi
4:53 PM83 °FSunny.23 mph12%29.65 "Hg10 mi
3:53 PM82 °FSunny.22 mph11%29.68 "Hg10 mi
2:53 PM81 °FSunny.16 mph14%29.72 "Hg10 mi
1:53 PM79 °FSunny.13 mph17%29.75 "Hg10 mi
12:53 PM78 °FSunny.16 mph17%29.77 "Hg10 mi
11:53 AM76 °FSunny.16 mph18%29.79 "Hg10 mi
10:53 AM74 °FSunny.24 mph20%29.80 "Hg10 mi
9:53 AM71 °FSunny.16 mph25%29.81 "Hg10 mi
8:53 AM66 °FSunny.12 mph29%29.80 "Hg10 mi
Weather by CustomWeather, © 2015

See weather overviewHow to use our weather pages